User: anonymous
Location: Tyler Bend Campground
(35.9875°N, 92.7606°W)
Time: 04:06:51
(UTC-05:00)
Language:

CZ-2C R/B - Orbit

View from above orbital plane
View from above orbital plane
View from above satellite
View from above satellite

Ground track
Ground track

The orbit data is extracted from the following two-line orbital elements,

1 36089U 09061B   14108.22700743  .00000382  00000-0  10785-3 0  3059
2 36089 098.1118 143.4470 0082342 004.1140 036.2551 14.49135688234255
Epoch (UTC): 18 April 2014 05:26:53
Eccentricity: 0.0082342
inclination: 98.1118°
perigee height: 670 km
apogee height: 787 km
right ascension of ascending node: 143.4470°
argument of perigee: 4.1140°
revolutions per day: 14.49135688
mean anomaly at epoch: 36.2551°
orbit number at epoch: 23425

The dashed part of the orbit path shows where the satellite is in the earth's shadow,  

DLR